Wetbulb
56.05 56.49 56.81 57.05 56.77 56.42 56.05 55.37 54.86 54.33 53.57 53.36 53.88 54.33 54.73 55.42 55.77 56.44 62.86 66.13 61.54 59.44 61.01 60.38 60.31 59.56 60.38 59.83 54.11 57.73 57.14 57.82 57.20 53.98 53.66 52.29 51.00 51.72 49.84 51.71 50.28 47.92 47.68 47.89 50.08 47.12 43.82 55.84 54.62 49.82 55.90 58.06 57.22 57.26
55.46 55.89 56.21 56.47 56.29 56.09 55.79 55.26 54.61 53.92 52.87 52.78 52.85 53.26 53.84 54.72 55.22 55.10 61.70 66.23 64.69 59.74 61.26 63.72 62.90 63.60 62.21 61.83 60.08 60.13 58.12 58.94 58.92 56.21 52.45 55.58 52.88 53.71 51.97 46.56 55.51 50.63 53.63 51.78 52.13 51.54 56.55 56.41 57.19 59.05 57.63 56.15 57.26 57.74
54.06 55.30 55.73 56.07 55.99 55.78 55.64 55.14 54.39 53.34 52.60 52.45 52.41 52.89 53.36 54.24 54.45 54.76 60.52 63.60 62.61 60.87 60.68 60.99 60.64 63.82 64.93 63.50 64.15 59.06 59.86 61.04 59.68 60.95 56.82 55.49 52.38 54.99 50.49 50.26 54.28 55.09 56.59 52.43 52.36 54.93 54.93 56.10 58.62 59.29 58.64 57.64 58.52 58.27
53.16 54.63 55.22 55.65 55.81 55.66 55.44 54.92 54.08 53.09 52.51 52.45 52.51 52.58 53.03 53.63 53.88 53.79 60.63 63.78 62.67 60.35 56.53 57.97 64.03 62.58 64.59 64.27 62.88 62.57 61.88 62.61 62.19 60.26 57.49 55.45 52.95 55.90 52.97 53.31 51.67 55.13 55.48 52.77 53.55 56.12 55.81 56.59 58.01 58.64 58.57 59.00 58.36 58.48
52.53 53.51 54.70 55.15 55.39 55.38 55.12 54.65 53.61 52.87 52.29 52.56 52.20 52.39 52.82 53.36 53.09 55.65 61.52 64.01 64.95 59.24 55.97 56.76 61.96 62.99 63.45 63.16 61.53 62.50 62.19 60.40 59.31 56.79 55.47 54.07 57.94 55.00 55.26 54.38 52.54 56.30 54.11 52.37 52.28 57.41 56.36 57.47 58.68 58.56 57.91 58.27 59.24 58.95
52.10 52.80 54.03 54.67 55.09 55.22 54.88 54.16 53.36 52.60 52.33 52.49 52.08 52.14 52.43 52.83 52.82 59.52 60.03 64.41 66.72 63.65 57.41 54.17 60.13 60.99 61.99 61.95 61.44 61.48 62.34 62.04 59.17 57.79 56.17 59.14 57.60 55.25 51.82 51.68 56.17 56.70 57.05 56.41 55.95 58.00 58.01 59.96 59.64 59.77 58.74 59.40 59.95 59.90
51.95 52.40 53.66 54.56 54.97 54.94 54.46 53.72 53.04 52.49 52.22 52.03 51.99 52.04 52.34 52.59 56.41 58.50 56.91 60.28 57.29 62.93 57.94 53.49 54.19 60.98 61.17 60.92 60.87 60.54 60.94 60.66 59.08 58.19 57.95 55.88 57.56 55.38 52.93 51.23 56.59 56.69 57.31 57.57 58.18 57.46 56.64 58.05 59.48 60.15 59.56 59.28 58.98 59.94
51.52 52.09 53.38 54.30 54.75 54.56 53.89 53.19 52.71 52.41 51.81 51.75 52.10 52.20 52.47 52.46 53.88 57.91 62.21 55.96 56.93 59.86 59.56 54.51 53.20 57.17 60.97 57.28 55.68 60.79 58.23 58.52 58.31 56.87 58.05 56.16 57.32 56.39 51.76 54.80 56.55 57.15 57.17 57.63 57.71 58.52 58.71 60.56 59.83 58.77 58.32 57.54 56.90 57.77
51.36 51.75 52.80 53.96 54.37 54.06 53.28 52.65 52.30 51.91 51.81 52.04 52.15 52.64 57.43 58.00 59.09 60.74 56.26 55.40 62.29 59.66 55.26 55.85 51.84 50.89 60.56 57.97 58.79 58.78 58.80 53.47 59.80 55.98 55.55 57.15 54.26 51.98 55.31 56.21 56.63 56.99 56.99 57.66 58.78 58.58 58.42 58.13 58.24 57.67 57.05 56.11 55.49 57.00
51.17 51.72 52.43 53.78 54.01 53.48 52.61 52.16 52.17 52.03 51.80 51.86 55.78 58.11 55.69 59.58 57.21 57.49 59.28 58.53 58.27 58.30 57.66 54.59 57.59 53.12 56.98 56.60 55.65 55.58 57.17 53.65 50.51 54.95 59.53 54.68 53.16 57.23 57.82 57.38 58.86 59.03 58.92 59.04 57.69 57.20 57.68 57.33 57.98 56.90 56.57 56.46 56.36 57.32
51.24 51.63 52.64 53.74 53.71 52.91 52.13 51.95 51.85 51.70 50.98 57.85 57.05 56.91 62.18 56.32 60.70 58.87 54.17 53.33 55.29 52.73 55.93 55.65 56.36 54.25 59.41 54.49 52.76 57.31 52.60 53.59 50.07 53.85 52.44 52.41 52.54 56.01 58.72 59.21 60.47 59.88 60.05 59.43 60.22 60.48 60.24 59.41 58.27 57.50 57.07 57.02 56.77 57.32
51.28 51.67 52.87 53.63 53.36 52.44 51.88 51.55 51.41 53.51 60.04 57.39 59.69 61.00 62.30 58.49 55.65 52.22 51.74 53.19 53.03 51.20 56.25 54.92 55.56 57.29 57.77 60.11 54.92 55.43 51.30 54.46 48.24 56.92 52.17 49.45 56.12 59.53 59.11 58.95 59.88 60.54 59.96 59.84 60.69 59.94 58.99 58.38 57.93 57.92 58.28 57.35 57.37 58.03
51.08 51.74 52.81 52.97 52.62 52.03 51.40 51.21 50.79 53.82 54.25 61.82 59.06 56.71 56.47 54.63 44.93 47.33 46.43 49.64 50.98 54.95 57.04 56.78 55.06 57.26 58.57 57.94 55.79 53.79 48.93 49.84 57.57 51.57 50.01 54.16 57.96 59.11 60.22 60.10 60.19 61.23 60.94 60.48 59.85 59.50 58.98 58.43 58.64 57.94 58.05 57.58 57.48 57.76
51.27 52.22 52.59 52.35 51.97 51.32 51.07 51.08 51.52 53.92 57.84 55.93 53.57 43.42 50.28 49.00 50.74 52.08 52.51 52.98 56.31 58.87 56.87 56.71 55.58 54.63 55.96 53.87 53.62 49.83 52.65 52.64 48.58 47.19 48.48 55.26 59.38 60.15 61.10 61.60 61.12 60.35 60.26 59.49 58.77 58.64 58.60 59.00 58.42 58.62 58.22 58.48 57.91 57.58
51.82 52.30 52.05 51.58 51.43 51.14 51.04 51.58 52.52 58.38 56.72 54.31 54.52 46.76 50.52 54.80 57.18 57.68 58.75 58.40 58.35 58.98 57.81 56.30 55.59 55.57 53.62 51.76 52.92 51.34 48.47 46.57 48.99 50.29 54.47 59.44 61.85 62.46 61.88 61.86 61.34 60.63 60.25 59.73 58.70 58.32 59.14 58.97 58.96 59.01 59.04 58.78 58.59 58.21
52.21 51.44 51.37 51.25 51.18 51.09 51.42 52.70 54.68 57.95 56.83 55.56 54.14 51.77 54.84 54.31 54.43 55.85 56.14 55.78 58.74 57.95 58.09 56.75 52.80 50.47 51.25 50.76 49.25 48.33 47.38 46.88 51.75 55.32 58.19 61.78 62.83 63.31 63.02 62.10 62.24 61.62 61.24 60.24 59.41 59.51 59.58 59.42 58.77 58.84 58.78 58.82 58.90 59.07
50.72 48.83 51.18 50.87 50.85 51.14 52.16 56.73 57.62 55.51 53.30 52.12 52.45 56.00 54.48 54.23 53.87 55.74 56.60 57.98 61.49 56.86 53.03 53.76 47.68 47.67 53.59 48.81 47.07 51.93 49.75 54.45 56.56 57.63 60.08 63.40 63.68 63.81 63.74 63.13 62.79 61.53 59.88 59.62 60.14 60.31 60.07 60.04 59.47 58.39 58.24 59.43 60.20 61.18
49.03 50.46 50.82 50.74 51.93 52.62 55.24 56.86 55.52 54.17 50.54 53.04 51.53 54.32 56.01 57.31 55.14 56.37 58.61 59.64 60.61 57.70 57.28 53.52 57.84 51.29 48.35 47.20 47.99 54.85 56.95 58.08 59.89 60.57 61.17 64.15 65.00 65.39 64.25 63.49 62.73 61.61 60.46 60.13 60.59 60.54 60.08 59.34 58.53 57.95 59.93 60.94 61.49 61.87
50.39 49.85 50.85 51.96 54.53 54.78 52.90 53.80 55.62 49.92 51.16 53.84 54.54 56.30 58.30 57.20 58.57 59.73 59.76 60.22 60.53 60.29 59.92 56.79 52.26 50.47 50.75 54.76 55.54 52.09 56.20 57.91 58.65 60.62 62.29 64.72 65.59 65.27 64.40 63.47 62.80 61.38 60.37 60.41 60.33 59.18 59.18 60.55 59.71 59.74 59.87 60.13 59.45 60.07
50.37 50.85 51.55 52.66 53.44 54.10 50.68 52.79 57.25 52.64 51.44 53.42 54.44 53.95 54.89 55.03 57.18 57.99 58.70 59.13 58.55 59.50 56.16 53.92 54.07 54.90 55.97 57.15 58.92 58.67 59.39 58.06 59.92 59.09 58.90 61.52 64.15 64.79 64.05 62.95 61.79 62.69 60.53 60.63 60.61 55.14 59.27 59.20 60.08 60.33 60.35 60.17 59.86 59.65
50.91 51.66 52.36 52.64 54.34 55.37 53.91 52.03 51.68 53.10 53.98 53.09 54.99 54.38 53.90 55.32 54.38 55.12 56.00 58.09 56.20 55.70 54.58 56.91 56.60 58.15 63.54 61.36 61.54 61.36 62.50 62.28 60.37 60.19 62.02 59.32 59.83 63.43 63.00 63.04 63.16 61.73 59.56 58.70 58.61 58.34 54.63 59.13 60.09 60.82 60.97 60.62 60.66 61.06
50.69 52.48 53.22 53.28 52.27 52.33 52.29 55.37 54.82 55.51 53.35 54.38 53.64 54.15 52.94 52.75 53.20 53.87 55.82 54.35 54.94 56.79 58.29 57.86 59.04 59.65 60.46 61.47 61.53 62.92 63.52 63.25 63.36 60.87 53.96 56.84 59.79 60.73 61.11 61.46 61.95 61.15 59.45 60.39 60.18 58.90 59.32 60.18 60.63 60.81 61.05 60.40 58.88 61.56
52.08 53.25 52.43 52.21 49.27 47.49 48.20 56.17 50.60 52.50 49.97 51.89 54.19 52.07 52.34 52.91 55.25 58.39 53.20 54.78 55.62 58.39 59.33 59.70 61.40 62.18 61.73 63.63 63.31 63.29 63.88 63.29 61.45 61.36 61.96 60.93 61.36 61.95 62.15 62.13 61.47 61.09 60.96 61.73 62.64 59.77 59.19 55.96 59.04 60.56 60.89 60.80 61.29 61.76
53.05 50.02 46.65 46.24 47.91 45.67 52.16 50.33 53.15 52.40 52.74 51.97 51.50 49.80 51.46 54.47 57.90 54.42 52.37 54.98 57.91 59.43 58.61 61.75 59.56 59.07 60.26 61.32 59.92 60.49 61.57 62.83 62.37 61.82 61.76 61.12 60.85 61.20 62.06 61.53 62.24 62.56 62.96 62.97 62.18 62.85 60.20 60.14 56.10 60.39 60.43 60.79 61.25 61.12
43.71 43.56 45.53 39.71 49.44 47.64 47.17 48.08 48.88 50.00 48.68 51.15 49.82 50.96 52.40 56.64 52.94 52.88 54.05 58.11 58.98 60.47 62.03 61.99 61.27 60.37 58.91 59.42 60.39 61.25 63.32 61.79 60.87 60.73 61.46 61.20 61.29 62.18 61.67 60.88 62.58 62.36 63.31 62.00 62.19 62.78 61.47 60.20 60.23 60.45 60.14 60.77 61.24 60.91
39.48 45.88 43.79 46.60 47.68 47.84 48.34 46.49 47.60 48.50 49.42 48.95 50.09 52.40 53.75 52.89 50.23 49.56 55.17 58.20 60.55 60.82 62.01 61.82 61.43 60.35 60.35 61.43 60.85 60.17 61.39 63.63 62.62 60.97 61.36 62.04 61.03 60.84 58.58 58.96 60.49 60.70 63.45 63.93 63.05 62.11 59.70 59.81 59.99 60.43 60.60 60.95 52.50 59.27
41.35 44.10 49.35 53.45 50.98 52.01 50.83 53.45 53.78 50.74 47.87 48.07 51.35 51.03 51.24 48.35 49.65 55.03 59.48 62.69 61.53 62.93 64.20 63.94 63.95 62.83 62.09 61.77 64.50 65.31 65.03 64.42 64.47 63.09 64.18 63.85 64.47 64.18 62.76 60.13 58.70 61.43 64.64 64.53 63.93 61.95 61.01 60.81 60.69 60.80 61.60 61.38 61.68 61.56
47.16 48.24 44.40 48.66 49.71 52.23 46.93 48.52 48.30 47.96 49.66 52.76 52.41 48.21 47.90 50.14 52.76 58.50 59.84 63.12 62.65 62.72 63.52 64.12 64.53 64.27 63.20 63.36 63.56 64.00 65.04 65.23 65.44 65.43 65.38 65.17 65.07 65.18 65.26 65.05 65.71 51.45 63.70 64.68 63.69 63.14 62.67 62.19 61.90 61.72 61.38 61.08 61.39 62.24
47.11 49.71 49.82 46.61 47.54 48.94 48.83 48.38 49.26 52.96 54.26 52.78 51.83 50.19 54.00 58.27 59.15 57.91 60.81 62.62 62.78 61.34 60.52 61.65 60.25 63.48 63.49 64.33 65.50 64.99 63.89 63.95 62.35 61.47 61.02 60.75 60.83 62.89 65.07 65.29 65.41 65.43 64.90 64.35 52.40 57.53 63.36 63.24 63.76 63.71 63.18 62.68 62.80 62.82
46.55 51.15 47.83 47.53 46.32 46.45 50.16 52.89 52.03 54.45 56.19 55.22 56.20 56.32 57.04 57.75 59.72 61.78 61.23 61.83 58.11 59.12 60.66 61.57 61.62 61.21 61.04 60.09 60.05 63.61 65.21 64.81 63.84 61.94 59.54 60.92 61.25 63.46 64.22 64.93 64.77 65.17 65.16 64.60 64.26 64.05 47.26 57.34 61.28 63.53 61.46 62.39 61.84 60.49
50.15 49.48 47.42 47.84 47.26 50.47 51.64 53.16 54.86 55.29 55.59 54.22 55.69 54.98 54.03 57.42 60.55 62.42 61.96 61.23 62.13 62.33 61.67 60.68 61.08 62.14 60.97 61.20 60.08 61.35 59.97 64.80 65.15 65.17 65.47 63.24 63.44 64.08 63.93 64.27 64.54 64.72 64.54 65.00 63.81 62.45 62.74 61.18 60.87 60.57 59.86 59.12 58.66 56.63
48.74 47.38 46.75 45.21 48.17 54.27 54.52 52.41 51.65 51.38 54.13 53.84 54.12 55.92 56.12 56.12 55.40 59.05 63.07 63.52 63.07 61.37 56.36 60.79 61.56 59.98 63.20 63.27 63.82 64.22 49.74 64.63 65.52 65.87 65.51 65.47 65.14 64.55 64.79 64.74 64.21 63.99 63.27 63.00 62.74 62.16 61.00 60.32 59.25 58.28 57.79 57.81 58.22 58.78
48.01 49.27 48.54 48.45 49.74 50.47 52.68 51.36 50.70 51.77 53.38 52.93 53.74 55.07 55.39 54.85 53.72 61.26 65.22 64.97 63.46 63.25 63.34 64.16 64.86 65.13 65.20 65.06 64.30 64.38 57.90 65.96 56.44 47.85 48.46 48.16 46.12 52.46 62.49 63.75 63.54 63.69 62.24 62.37 61.90 61.15 59.55 58.13 58.69 58.43 58.77 59.28 59.49 59.58
MSLP
1020.16 1020.05 1020.06 1020.01 1020.18 1020.25 1020.40 1020.65 1020.51 1020.53 1020.49 1020.36 1020.08 1019.80 1019.61 1019.30 1018.92 1018.26 1015.01 1014.71 1014.12 1011.68 1009.61 1009.54 1009.15 1008.65 1007.66 1006.81 1007.09 1005.82 1005.23 1004.29 1003.93 1003.84 1003.60 1003.81 1004.16 1005.34 1006.29 1006.57 1007.20 1007.38 1007.43 1007.19 1007.05 1006.83 1007.28 1008.04 1008.49 1008.79 1009.91 1010.08 1010.31 1010.56
1019.91 1019.62 1019.61 1019.63 1019.65 1019.83 1020.01 1020.25 1020.31 1020.33 1020.31 1020.22 1019.98 1019.74 1019.61 1019.39 1019.07 1018.83 1015.17 1014.07 1014.28 1013.50 1010.62 1009.94 1009.38 1009.35 1009.16 1008.73 1007.64 1006.08 1006.41 1006.34 1005.82 1005.46 1005.59 1004.65 1005.18 1005.92 1005.84 1006.53 1007.07 1007.22 1007.15 1007.64 1008.88 1007.91 1008.87 1008.84 1009.16 1009.95 1010.18 1010.49 1010.73 1011.03
1019.38 1019.11 1019.07 1019.08 1019.17 1019.39 1019.61 1019.76 1020.01 1020.10 1020.01 1019.98 1019.83 1019.63 1019.54 1019.40 1019.16 1018.97 1016.57 1014.86 1013.77 1012.17 1009.93 1009.14 1008.27 1008.90 1008.72 1008.36 1008.15 1007.31 1006.96 1007.40 1006.92 1006.84 1006.03 1006.07 1006.79 1006.00 1006.02 1006.59 1006.86 1007.65 1008.30 1008.11 1008.51 1008.70 1008.98 1009.12 1010.07 1010.50 1010.82 1010.88 1011.24 1011.46
1018.78 1018.54 1018.52 1018.61 1018.73 1018.85 1019.17 1019.33 1019.70 1019.87 1019.79 1019.74 1019.61 1019.47 1019.41 1019.27 1019.07 1018.95 1016.48 1014.89 1014.08 1012.62 1010.18 1007.96 1008.38 1008.61 1009.01 1008.43 1008.52 1008.35 1008.00 1008.04 1007.67 1007.07 1006.46 1006.30 1006.60 1007.27 1006.77 1007.40 1007.54 1007.91 1008.45 1008.29 1008.46 1009.03 1009.51 1009.61 1010.05 1010.48 1011.12 1011.59 1011.82 1011.96
1018.20 1018.18 1017.96 1018.05 1018.15 1018.40 1018.74 1018.99 1019.36 1019.62 1019.58 1019.50 1019.39 1019.30 1019.23 1019.05 1018.84 1018.30 1016.53 1015.01 1014.74 1014.23 1011.27 1009.20 1008.16 1008.34 1008.41 1008.66 1008.48 1008.34 1007.83 1007.55 1007.15 1006.94 1006.58 1006.62 1007.13 1007.70 1007.33 1007.27 1006.64 1007.22 1007.66 1007.97 1007.57 1008.99 1009.36 1009.73 1010.45 1010.88 1011.35 1011.60 1011.94 1012.15
1017.42 1017.59 1017.56 1017.53 1017.56 1017.89 1018.28 1018.68 1019.05 1019.32 1019.38 1019.29 1019.20 1019.08 1019.05 1018.88 1018.67 1017.26 1014.69 1014.69 1014.65 1014.47 1012.83 1009.83 1008.76 1008.62 1008.75 1008.78 1008.57 1008.41 1007.99 1007.81 1007.36 1006.64 1006.72 1007.13 1007.87 1008.41 1007.18 1006.62 1006.85 1007.39 1008.17 1008.16 1008.57 1009.30 1009.78 1010.42 1011.20 1011.55 1011.64 1011.76 1011.95 1012.49
1016.67 1016.86 1016.96 1017.07 1017.10 1017.36 1017.82 1018.31 1018.73 1018.96 1019.17 1019.13 1019.03 1018.86 1018.88 1018.75 1018.05 1016.88 1016.79 1016.21 1016.31 1015.20 1012.97 1010.87 1009.27 1008.33 1008.69 1008.61 1008.35 1008.15 1008.19 1007.77 1007.71 1007.33 1007.33 1007.42 1007.71 1008.68 1007.54 1006.62 1006.82 1007.61 1008.19 1008.81 1009.11 1009.70 1010.02 1010.43 1010.70 1011.72 1012.15 1012.48 1012.88 1012.88
1015.97 1016.12 1016.26 1016.48 1016.64 1016.89 1017.40 1017.96 1018.36 1018.76 1018.97 1018.95 1018.84 1018.67 1018.67 1018.52 1018.13 1016.68 1015.59 1016.49 1016.50 1014.62 1012.82 1010.91 1009.56 1008.51 1008.61 1008.09 1008.07 1008.04 1007.90 1008.00 1007.79 1007.61 1007.81 1007.63 1007.58 1008.19 1007.43 1007.03 1007.11 1007.71 1008.31 1009.08 1009.49 1009.68 1009.55 1010.23 1011.41 1011.87 1012.37 1012.68 1012.79 1013.09
1015.09 1015.39 1015.63 1015.88 1016.11 1016.46 1017.04 1017.62 1018.14 1018.58 1018.80 1018.74 1018.60 1018.48 1017.71 1017.52 1015.72 1015.45 1016.26 1016.37 1015.65 1014.82 1012.20 1010.05 1008.89 1008.71 1008.49 1008.31 1008.78 1008.59 1008.12 1007.85 1007.63 1007.34 1007.05 1007.32 1007.15 1007.08 1007.28 1007.64 1007.44 1007.93 1008.57 1008.91 1009.37 1009.58 1009.93 1010.48 1010.98 1011.61 1012.08 1012.24 1012.68 1012.83
1014.26 1014.69 1014.95 1015.26 1015.59 1016.03 1016.72 1017.39 1017.80 1018.38 1018.56 1018.50 1018.17 1016.94 1015.19 1015.04 1015.94 1016.17 1016.20 1014.86 1014.24 1013.11 1012.39 1010.30 1008.49 1007.94 1008.02 1007.71 1008.12 1008.45 1008.16 1007.78 1007.56 1006.85 1007.06 1007.43 1007.03 1006.93 1007.23 1007.51 1007.73 1008.10 1008.55 1008.69 1009.21 1009.64 1010.02 1010.46 1011.09 1011.49 1011.83 1012.10 1012.29 1012.53
1013.46 1014.00 1014.31 1014.70 1015.07 1015.65 1016.43 1017.07 1017.60 1018.22 1018.41 1017.46 1015.68 1014.40 1014.89 1015.73 1015.31 1014.30 1013.53 1012.98 1011.55 1011.04 1010.14 1009.43 1008.54 1007.74 1008.02 1008.27 1008.96 1008.78 1009.01 1008.42 1007.46 1006.89 1007.32 1006.23 1005.94 1006.39 1007.28 1007.64 1008.25 1008.44 1008.69 1008.89 1009.18 1009.49 1009.57 1010.10 1010.57 1011.25 1011.67 1012.31 1012.58 1012.78
1012.68 1013.31 1013.71 1014.18 1014.62 1015.30 1016.09 1016.74 1017.33 1017.57 1015.59 1015.67 1015.21 1014.59 1014.38 1014.13 1013.64 1012.96 1012.13 1011.47 1010.52 1009.49 1008.78 1008.68 1008.48 1008.63 1008.53 1008.73 1009.41 1009.05 1008.71 1008.37 1007.40 1007.51 1007.43 1006.36 1006.43 1007.27 1007.75 1007.91 1008.18 1008.66 1008.86 1008.98 1009.22 1009.61 1010.02 1010.34 1010.84 1011.42 1011.92 1012.35 1012.73 1013.03
1011.99 1012.61 1013.19 1013.67 1014.26 1014.95 1015.80 1016.47 1016.72 1016.44 1016.18 1015.02 1014.87 1013.55 1012.89 1012.79 1012.78 1011.59 1010.24 1009.65 1008.88 1008.73 1008.69 1008.71 1008.55 1008.61 1009.10 1008.89 1009.09 1009.32 1008.79 1007.99 1007.72 1007.44 1006.56 1005.95 1007.30 1007.70 1008.07 1008.30 1008.53 1008.66 1008.96 1009.26 1009.54 1009.93 1010.31 1010.68 1011.17 1011.62 1011.91 1012.35 1012.68 1012.93
1011.41 1012.06 1012.75 1013.31 1013.96 1014.79 1015.70 1016.28 1016.70 1016.90 1016.23 1014.21 1013.09 1013.20 1011.97 1010.92 1010.07 1008.91 1008.48 1008.01 1008.15 1008.30 1008.42 1008.64 1008.49 1009.05 1008.97 1008.93 1009.11 1008.79 1008.53 1008.49 1007.18 1006.36 1005.86 1005.99 1007.43 1007.99 1008.43 1008.65 1008.86 1009.00 1009.17 1009.38 1009.74 1010.05 1010.43 1010.91 1011.37 1011.78 1012.02 1012.21 1012.53 1012.76
1011.04 1011.83 1012.56 1013.29 1013.96 1014.94 1015.71 1016.25 1016.64 1016.18 1015.32 1013.55 1012.10 1011.44 1010.16 1009.13 1008.79 1008.53 1008.30 1008.52 1008.84 1008.51 1008.25 1008.70 1009.42 1009.38 1009.23 1009.52 1008.92 1008.64 1008.22 1007.32 1006.42 1005.72 1005.72 1007.00 1007.89 1008.40 1008.76 1008.91 1008.99 1009.26 1009.49 1009.60 1009.86 1010.13 1010.51 1010.96 1011.32 1011.70 1011.92 1012.13 1012.44 1012.61
1010.97 1012.03 1012.55 1013.23 1014.10 1015.14 1015.75 1016.40 1016.66 1015.90 1014.70 1013.12 1012.01 1010.74 1009.50 1009.05 1008.24 1008.44 1008.64 1008.36 1008.53 1008.66 1008.41 1008.82 1009.60 1009.63 1009.17 1009.27 1008.41 1007.78 1007.13 1006.19 1005.55 1005.90 1006.44 1007.63 1008.42 1008.82 1009.07 1009.17 1009.35 1009.47 1009.66 1009.84 1010.02 1010.29 1010.62 1010.99 1011.36 1011.51 1011.76 1012.00 1012.10 1012.20
1010.47 1011.26 1012.19 1013.32 1014.43 1015.14 1015.45 1015.00 1015.12 1014.43 1013.37 1011.92 1010.52 1009.89 1009.42 1009.08 1008.48 1008.15 1008.05 1008.47 1008.45 1008.53 1008.54 1009.08 1009.81 1009.58 1009.06 1008.84 1008.15 1006.93 1006.49 1006.04 1006.10 1006.51 1006.98 1008.20 1008.75 1009.11 1009.35 1009.48 1009.75 1010.01 1010.16 1010.14 1010.23 1010.50 1010.77 1011.11 1011.34 1011.47 1011.61 1011.74 1011.72 1011.66
1010.54 1011.40 1012.06 1013.50 1014.28 1015.16 1015.30 1014.72 1013.39 1012.62 1011.88 1010.98 1010.00 1008.84 1008.74 1008.59 1008.71 1008.40 1008.41 1008.69 1009.36 1009.26 1008.80 1008.83 1008.68 1008.37 1008.13 1007.31 1007.42 1006.81 1006.41 1006.88 1006.61 1007.17 1007.65 1008.33 1008.88 1009.16 1009.43 1009.64 1009.87 1010.08 1010.23 1010.33 1010.46 1010.66 1010.90 1011.09 1011.17 1011.19 1011.26 1011.39 1011.31 1010.89
1010.46 1011.31 1012.49 1013.09 1013.02 1012.70 1012.81 1013.39 1013.18 1011.69 1010.63 1009.72 1009.47 1008.70 1008.61 1008.49 1008.47 1008.58 1008.60 1008.79 1008.98 1009.11 1009.27 1008.75 1008.25 1007.74 1007.72 1007.05 1007.00 1008.14 1007.99 1007.08 1007.21 1007.68 1007.69 1008.60 1008.99 1009.25 1009.46 1009.61 1009.88 1010.07 1010.18 1010.36 1010.50 1010.44 1010.37 1010.75 1010.44 1010.08 1009.79 1009.70 1009.52 1009.10
1011.45 1012.10 1012.80 1013.37 1013.42 1012.17 1011.82 1012.57 1012.78 1011.40 1009.46 1009.09 1009.05 1008.62 1008.58 1008.44 1008.25 1008.27 1008.36 1008.39 1008.47 1009.36 1009.31 1008.30 1007.22 1006.84 1006.89 1006.86 1006.95 1007.46 1007.26 1007.43 1007.72 1007.11 1007.47 1007.53 1008.38 1009.06 1009.38 1009.40 1009.50 1009.80 1010.11 1010.19 1010.33 1010.61 1009.92 1010.01 1009.89 1010.00 1009.73 1009.32 1009.34 1009.13
1012.66 1013.36 1013.58 1013.42 1012.87 1012.10 1011.47 1011.71 1010.93 1010.09 1009.23 1008.92 1008.33 1008.44 1008.14 1008.19 1008.10 1007.86 1007.62 1007.74 1008.16 1008.09 1007.87 1007.30 1006.92 1006.60 1006.85 1006.69 1006.98 1007.28 1007.18 1007.36 1007.08 1007.24 1007.38 1007.74 1008.66 1007.83 1008.36 1009.14 1009.46 1009.45 1009.66 1009.35 1009.34 1009.25 1009.80 1009.19 1008.85 1008.66 1008.45 1008.47 1008.32 1008.20
1012.89 1013.31 1013.36 1012.92 1012.26 1011.99 1011.37 1010.89 1010.22 1009.93 1009.64 1008.21 1008.20 1008.23 1007.63 1007.29 1007.15 1007.16 1007.46 1007.18 1006.79 1006.51 1006.54 1006.46 1006.47 1006.40 1006.55 1006.84 1007.02 1007.39 1007.47 1007.59 1007.69 1007.62 1007.69 1007.90 1007.80 1007.49 1007.88 1008.32 1008.45 1008.67 1009.23 1008.86 1008.39 1008.31 1008.33 1008.53 1008.54 1008.33 1008.14 1008.00 1008.03 1007.77
1012.97 1013.19 1013.04 1012.44 1012.00 1011.81 1011.08 1010.57 1010.37 1009.62 1008.68 1007.88 1007.52 1007.41 1006.97 1006.77 1006.40 1006.39 1006.37 1006.08 1005.88 1005.80 1005.93 1005.99 1006.05 1006.51 1006.59 1006.58 1006.62 1006.88 1007.19 1007.39 1007.18 1006.72 1006.87 1006.99 1007.06 1007.13 1007.53 1007.87 1007.87 1007.90 1007.86 1007.66 1007.65 1007.78 1007.66 1007.61 1007.78 1008.12 1008.01 1007.81 1007.32 1006.98
1012.93 1013.22 1013.05 1012.19 1011.40 1010.51 1010.11 1009.71 1009.35 1008.38 1007.96 1007.36 1006.89 1006.66 1006.29 1006.16 1006.20 1006.35 1005.56 1004.96 1004.25 1004.62 1004.94 1005.30 1005.52 1005.73 1005.90 1006.23 1006.22 1006.08 1006.14 1006.26 1006.35 1006.19 1006.28 1006.38 1006.22 1006.65 1006.82 1006.90 1007.10 1007.23 1007.13 1007.09 1007.25 1007.02 1007.11 1007.25 1007.41 1007.35 1007.08 1006.85 1006.53 1006.17
1013.64 1013.37 1012.79 1011.94 1010.78 1009.80 1009.06 1008.61 1008.35 1007.53 1006.96 1006.61 1006.39 1006.09 1006.38 1006.70 1006.56 1006.02 1005.28 1005.02 1004.94 1004.08 1004.16 1004.73 1004.90 1004.87 1004.66 1004.43 1004.39 1004.62 1005.10 1005.12 1004.91 1004.91 1005.13 1005.48 1005.75 1005.71 1006.54 1006.98 1006.34 1006.57 1006.62 1006.62 1006.42 1006.33 1006.33 1006.59 1006.64 1006.40 1006.51 1006.26 1005.97 1005.73
1012.67 1012.06 1011.65 1010.07 1009.62 1008.73 1007.85 1007.41 1007.24 1006.93 1006.38 1006.24 1006.26 1006.46 1006.20 1005.82 1005.59 1005.31 1005.37 1005.28 1005.06 1004.51 1004.19 1003.92 1003.70 1003.67 1003.78 1003.78 1003.69 1003.62 1003.80 1004.07 1004.18 1004.27 1004.47 1004.57 1004.85 1005.15 1005.72 1006.60 1005.79 1005.80 1005.86 1005.67 1005.78 1005.64 1005.91 1006.03 1005.86 1006.00 1005.92 1005.84 1005.51 1005.72
1011.39 1010.51 1009.91 1009.52 1008.69 1008.20 1007.54 1007.05 1006.86 1006.59 1006.37 1006.19 1005.71 1005.58 1005.65 1005.77 1005.27 1005.61 1005.00 1004.77 1004.38 1004.41 1004.40 1004.10 1003.87 1003.39 1003.58 1003.59 1003.58 1003.42 1003.44 1003.69 1003.85 1003.99 1004.11 1004.04 1003.90 1004.07 1004.26 1004.82 1005.48 1005.37 1005.00 1004.91 1005.18 1005.30 1005.22 1005.23 1005.38 1005.51 1005.17 1004.70 1004.67 1004.57
1010.40 1009.97 1009.53 1009.16 1008.54 1008.10 1007.78 1007.13 1006.91 1006.38 1005.93 1005.60 1005.60 1005.38 1005.04 1005.15 1005.88 1006.12 1005.28 1004.99 1004.73 1004.23 1003.97 1003.75 1003.78 1003.50 1003.42 1003.35 1003.23 1003.31 1003.44 1003.65 1003.75 1004.04 1004.04 1003.95 1003.85 1003.82 1004.00 1003.98 1004.21 1004.95 1004.63 1004.42 1004.67 1004.85 1004.95 1005.08 1005.17 1005.01 1004.78 1004.63 1004.63 1004.51
1009.90 1009.70 1009.72 1008.96 1008.71 1008.34 1007.91 1007.33 1006.56 1005.65 1005.69 1005.59 1005.49 1005.44 1005.13 1005.46 1005.96 1005.94 1005.11 1004.94 1005.12 1004.42 1003.80 1003.41 1003.82 1003.37 1003.08 1003.02 1003.11 1003.08 1003.11 1003.19 1003.31 1003.67 1003.88 1003.50 1003.27 1003.34 1003.65 1003.83 1003.89 1004.45 1004.65 1004.77 1005.23 1005.45 1005.22 1005.53 1005.57 1005.48 1005.13 1004.88 1004.64 1004.23
1009.72 1009.49 1009.27 1008.80 1008.32 1007.69 1007.17 1006.76 1006.33 1005.75 1005.58 1005.95 1005.91 1005.73 1005.12 1004.78 1004.78 1004.93 1004.75 1004.95 1005.14 1004.41 1003.76 1003.36 1003.14 1002.94 1002.98 1003.24 1003.73 1002.77 1002.74 1002.87 1003.03 1003.40 1003.43 1003.06 1003.01 1003.27 1003.34 1003.27 1003.60 1003.65 1003.88 1003.95 1003.96 1004.08 1005.47 1005.91 1005.15 1005.06 1005.19 1004.57 1004.03 1003.84
1009.82 1009.36 1009.17 1008.75 1008.06 1007.48 1007.31 1007.24 1006.78 1006.42 1005.64 1005.81 1005.69 1005.15 1004.97 1004.60 1004.46 1004.57 1004.85 1005.25 1004.70 1003.93 1003.42 1003.13 1003.15 1002.84 1002.62 1002.51 1002.91 1002.51 1003.21 1002.73 1002.79 1003.12 1003.09 1003.46 1003.09 1002.93 1002.83 1003.04 1003.12 1003.18 1003.26 1003.37 1003.70 1003.91 1004.54 1004.47 1003.99 1003.91 1004.05 1004.15 1004.40 1004.37
1009.42 1009.10 1008.81 1008.40 1007.85 1007.39 1006.90 1006.64 1006.49 1006.14 1005.27 1004.94 1004.78 1004.66 1004.57 1004.50 1004.50 1004.48 1004.95 1004.78 1004.10 1003.73 1003.67 1003.35 1002.96 1003.58 1002.63 1002.57 1002.31 1002.20 1002.65 1002.29 1002.53 1003.02 1003.35 1003.09 1002.98 1003.11 1003.34 1003.27 1003.40 1003.64 1003.65 1003.56 1003.73 1003.82 1004.18 1004.48 1004.26 1004.56 1004.44 1004.39 1004.59 1004.51
1009.35 1008.60 1008.61 1008.29 1007.43 1006.73 1006.21 1006.09 1005.67 1004.95 1004.37 1004.12 1003.97 1003.83 1003.81 1004.09 1004.77 1005.80 1005.12 1005.26 1005.26 1004.71 1004.34 1004.04 1003.50 1002.77 1002.65 1002.46 1002.11 1002.34 1002.71 1002.67 1003.77 1004.00 1004.07 1004.23 1004.34 1004.09 1003.91 1003.33 1003.51 1003.67 1003.78 1003.81 1003.88 1004.00 1004.32 1004.74 1004.63 1004.86 1004.75 1004.70 1004.58 1004.47
Wind_Speed
13 12 12 11 11 10 8 8 7 7 7 8 9 10 11 12 13 9 6 3 6 7 4 4 4 7 12 9 7 6 7 1 4 7 4 4 5 6 4 5 2 3 4 9 9 5 1 6 7 3 6 6 5 4
16 12 12 12 12 11 9 9 7 6 6 6 8 9 10 11 12 10 7 1 4 6 10 9 4 2 3 7 8 6 5 6 8 1 1 4 3 6 6 7 2 5 6 3 9 6 5 4 8 7 2 3 1 1
15 13 11 13 13 11 11 9 7 7 6 5 7 8 9 10 10 8 8 6 7 8 9 10 10 4 5 5 7 6 6 6 4 6 5 4 5 6 3 7 11 5 4 4 4 7 3 3 5 5 2 2 1 4
15 14 12 13 13 13 11 9 8 8 6 5 6 8 9 9 8 8 8 6 7 6 7 10 5 5 2 3 5 6 4 0 2 5 3 4 2 3 5 5 5 7 4 4 5 6 2 5 6 5 4 1 3 4
15 14 13 12 14 13 12 10 9 8 7 6 6 7 9 9 9 9 9 5 3 7 7 6 1 6 5 3 1 2 4 6 4 4 5 1 2 4 6 5 7 8 6 6 4 8 4 8 4 2 3 5 5 6
15 14 14 12 14 14 12 11 10 8 7 6 6 6 8 8 8 7 5 5 2 4 6 4 2 5 4 4 3 2 3 2 6 4 2 2 2 6 6 6 5 5 1 4 3 4 5 8 3 1 4 6 4 6
16 15 14 13 14 15 14 12 10 8 7 6 6 5 7 7 7 5 4 5 7 6 5 4 3 4 5 5 7 6 6 4 6 3 3 7 2 4 7 9 8 5 6 4 3 3 5 5 2 4 1 2 2 5
17 16 14 13 14 15 14 12 10 8 7 5 6 5 7 7 12 8 3 10 7 5 4 4 4 9 8 6 7 5 5 5 5 6 5 5 4 4 5 5 1 8 5 5 5 6 4 11 4 4 2 1 3 6
18 17 15 14 14 16 15 12 10 8 6 5 4 6 6 6 5 5 6 5 5 6 6 4 4 2 6 4 2 4 5 6 2 5 9 3 6 6 3 6 5 5 6 7 6 5 3 3 3 1 2 2 3 6
19 18 15 14 16 17 16 14 11 8 5 4 6 7 6 4 10 6 4 5 7 6 6 8 5 4 4 6 5 2 4 4 4 4 1 5 9 10 8 5 5 7 7 4 6 7 5 3 3 4 2 6 5 5
19 18 16 15 18 18 17 15 12 10 6 6 6 1 6 3 5 5 3 4 5 4 6 8 9 5 4 1 1 2 4 3 4 3 4 4 5 8 8 8 6 5 5 5 5 7 7 5 5 6 2 1 5 4
20 18 17 18 20 20 18 16 14 7 2 2 3 1 4 5 4 5 5 5 4 6 5 6 7 3 2 4 3 4 2 2 5 4 4 5 8 8 5 7 9 9 8 8 7 4 4 2 4 2 1 2 2 1
20 18 17 20 21 21 19 17 18 8 8 4 5 6 3 3 0 7 8 5 5 6 4 5 6 5 4 6 4 3 3 5 2 4 5 3 8 7 6 7 7 7 7 6 6 5 4 5 4 3 4 4 4 4
18 18 20 21 22 20 18 14 12 5 5 5 7 1 6 7 7 7 8 2 4 1 6 7 6 4 2 4 4 4 2 5 5 5 5 7 9 7 7 7 7 6 6 5 5 5 6 7 6 4 5 4 5 5
18 19 21 21 22 19 16 13 11 6 3 5 5 5 10 6 2 3 3 1 2 3 5 6 1 4 5 2 4 4 5 6 6 4 7 10 7 7 8 7 7 6 6 5 4 6 7 7 6 6 6 5 6 5
21 21 7 23 21 17 15 11 6 3 4 4 5 6 5 5 6 6 6 7 7 6 6 5 2 4 5 3 6 6 6 4 3 4 7 8 5 7 8 7 5 4 4 5 6 6 7 6 6 6 6 6 6 7
13 4 25 23 20 17 17 8 6 7 5 5 6 7 5 5 4 3 4 2 1 4 6 4 1 4 5 4 4 5 6 1 5 5 7 7 6 8 7 5 5 4 5 5 5 6 6 5 6 6 6 7 8 8
4 18 29 25 18 11 5 5 4 6 7 7 7 8 8 4 4 6 3 3 2 3 6 4 2 7 4 6 2 2 3 5 2 3 5 5 4 7 7 7 6 6 6 6 7 7 7 7 7 7 8 9 9 13
16 19 27 25 11 6 6 7 3 5 8 5 8 5 2 4 5 3 6 7 5 5 2 5 6 6 6 4 6 2 11 1 2 4 6 5 5 8 7 7 6 6 5 7 8 8 7 9 9 7 6 5 7 7
24 25 24 8 5 2 5 3 2 5 4 6 6 7 7 7 6 7 8 8 7 3 5 6 9 3 2 7 2 4 6 3 9 3 3 6 8 9 8 7 7 7 6 6 8 9 8 7 8 8 8 7 6 7
15 5 4 3 3 2 2 4 6 4 3 4 5 6 5 7 8 8 8 7 6 8 8 8 7 6 3 4 4 5 4 3 6 5 2 4 3 7 8 7 6 6 6 6 8 9 9 9 8 9 6 7 6 7
4 6 1 2 1 3 3 5 3 3 4 3 5 5 5 7 8 9 8 10 11 9 10 8 5 1 5 7 6 6 7 5 6 6 2 3 7 5 5 6 9 8 7 10 9 8 8 10 9 8 7 6 6 9
7 1 1 2 2 1 3 4 5 6 6 5 5 5 6 5 5 4 5 8 10 10 9 10 10 9 10 8 5 8 10 10 9 9 7 7 5 5 5 5 4 6 8 6 6 7 9 6 3 5 8 10 11 10
3 3 3 5 6 3 5 6 5 4 6 7 5 5 5 3 3 4 8 10 6 7 9 11 9 9 10 12 10 10 11 11 11 10 8 7 7 8 5 6 7 6 8 6 6 7 8 8 7 9 11 11 10 10
3 2 3 2 3 6 7 7 7 6 7 8 5 4 4 4 4 5 3 2 3 2 3 5 6 8 9 10 10 11 12 10 10 11 9 8 9 6 8 8 9 7 7 7 8 8 7 9 10 11 9 12 10 9
2 6 5 9 8 7 6 7 8 8 5 4 3 1 3 3 4 2 2 3 4 3 1 2 2 6 7 5 5 6 6 7 7 8 7 7 6 6 6 10 11 6 7 10 10 9 9 11 11 12 9 16 13 10
4 4 5 3 3 2 3 0 1 4 5 6 4 4 4 4 4 3 3 2 2 3 1 3 4 3 1 1 3 2 3 4 6 6 5 6 4 5 6 7 8 10 12 7 9 9 10 9 7 8 12 8 10 11
3 2 3 7 5 3 2 3 6 6 5 4 2 3 2 4 3 0 4 3 5 4 3 3 4 4 4 5 3 3 4 5 4 5 5 4 5 5 6 5 2 7 7 0 5 9 9 8 8 10 10 10 9 11
2 5 3 5 4 4 6 5 5 4 1 4 2 3 2 4 3 2 5 3 3 8 5 2 3 6 4 5 4 5 4 5 7 9 9 8 7 8 7 7 5 7 7 7 7 8 11 9 10 12 14 12 11 12
4 3 3 5 5 5 2 3 6 4 2 3 3 4 7 5 4 4 4 0 4 9 7 5 5 4 4 1 4 5 5 5 4 4 5 7 6 6 6 5 6 7 8 10 10 8 2 6 10 10 10 9 9 9
3 4 2 4 4 3 5 5 5 7 6 4 9 7 5 3 2 2 2 2 8 7 7 5 2 5 5 3 5 2 4 5 5 4 2 6 1 5 5 6 6 4 3 0 2 2 4 6 7 8 10 7 8 7
4 5 4 3 3 3 5 6 6 9 11 10 9 8 7 5 3 4 3 4 6 5 3 6 4 6 5 4 3 4 0 3 7 4 5 5 3 7 5 3 3 3 4 4 3 3 6 7 6 7 7 6 5 6
5 5 2 5 7 6 4 4 4 6 8 8 8 8 8 5 4 1 2 5 5 6 7 7 8 7 7 6 5 4 1 9 12 11 11 11 12 11 7 3 5 2 3 3 4 4 3 2 3 4 5 7 8 10
Wind_Direction
266 265 257 239 231 232 232 250 267 287 307 325 328 332 336 340 346 333 308 30 321 315 325 353 2 335 332 17 335 50 242 229 28 17 36 354 93 157 179 153 216 270 255 232 286 244 189 97 125 288 64 132 140 147
274 266 260 238 227 226 223 236 255 272 293 314 324 327 328 334 340 336 274 73 323 262 320 320 306 347 307 319 320 354 54 16 1 338 304 316 169 189 114 213 352 261 334 58 230 68 130 133 61 88 28 108 55 250
279 260 258 241 225 221 223 221 241 256 265 289 306 317 322 327 336 333 305 318 294 254 254 227 197 125 314 321 341 310 93 334 56 333 341 59 210 344 333 25 200 137 4 291 324 126 150 135 101 137 163 294 328 300
274 263 254 245 224 217 215 212 228 247 257 273 293 309 314 318 326 323 296 340 291 295 278 151 124 194 312 336 345 348 359 162 336 300 322 328 8 344 354 13 317 44 160 246 244 155 162 184 190 178 147 303 281 285
266 266 250 243 222 213 207 206 216 236 246 261 286 298 307 312 316 287 265 272 309 311 325 327 133 177 207 87 312 257 238 266 225 215 230 281 41 239 206 264 256 162 201 215 75 115 267 109 131 197 227 231 250 270
252 262 253 240 222 206 199 202 208 222 240 256 274 293 305 312 323 277 210 169 263 324 283 292 335 182 185 232 226 251 291 256 267 291 331 112 59 294 280 264 98 97 181 328 21 32 99 86 89 50 296 300 278 264
245 251 246 237 222 201 193 194 198 212 233 249 267 285 294 303 285 294 358 12 340 298 253 263 267 172 209 224 220 229 206 253 288 302 291 278 140 211 268 273 144 176 165 145 87 179 155 184 156 114 346 332 136 266
238 243 238 232 217 197 186 186 186 204 227 249 267 281 282 284 270 259 168 220 266 269 268 270 181 217 177 220 222 217 256 221 223 255 225 249 191 225 263 283 337 149 147 147 188 223 321 95 130 154 130 297 250 238
230 233 232 224 209 189 177 174 176 197 225 241 269 277 242 220 236 73 114 148 241 291 301 254 260 84 181 211 125 223 251 235 202 241 240 210 251 212 208 249 231 165 177 205 188 226 177 194 169 226 265 268 256 255
224 225 223 216 198 179 168 171 167 187 210 237 240 210 189 54 127 150 171 208 195 200 222 263 277 220 192 179 199 205 216 241 254 206 108 233 250 267 192 238 216 181 200 194 188 195 212 224 220 256 285 321 308 262
217 218 213 205 186 170 166 165 161 169 205 214 214 180 83 136 216 214 232 236 186 224 206 226 254 239 145 142 67 116 288 225 253 158 245 234 226 170 213 212 162 173 209 241 208 225 223 215 201 215 237 272 280 261
210 211 204 195 176 164 164 162 167 196 187 0 342 196 163 210 222 221 208 213 248 234 150 217 204 180 214 137 148 259 228 250 255 85 240 247 103 120 161 204 182 204 219 226 205 216 272 236 186 196 251 197 232 240
202 201 194 181 169 161 164 173 193 298 283 203 225 185 201 175 175 220 197 206 218 171 165 200 183 172 138 230 104 266 233 254 53 225 230 58 108 124 138 152 168 176 178 204 205 228 218 222 178 239 205 206 218 216
195 187 180 168 159 158 163 172 182 216 259 236 174 211 218 189 228 213 234 237 91 255 156 194 184 178 202 191 212 197 232 214 249 240 213 133 119 135 160 155 166 178 193 200 220 230 212 195 200 217 241 230 219 233
179 171 161 156 150 156 160 164 182 210 266 247 203 231 206 253 334 315 338 39 162 269 190 129 345 190 181 174 233 220 207 236 213 241 82 96 126 154 174 179 181 184 205 234 230 202 190 201 198 218 243 217 221 244
151 133 151 146 146 150 144 157 178 227 243 232 230 232 248 277 230 177 200 221 157 212 205 139 195 190 206 201 209 217 223 242 160 119 78 110 122 163 175 183 182 213 217 245 206 205 198 196 228 245 206 226 229 236
133 125 147 139 141 150 181 170 189 207 234 232 215 236 241 297 310 334 190 128 204 224 207 124 76 222 184 216 266 232 218 61 92 96 87 89 162 175 181 191 181 203 226 232 211 205 198 201 221 210 213 230 251 256
78 139 138 143 146 151 174 222 219 211 215 223 240 223 208 229 270 206 213 191 113 239 228 244 7 219 217 210 267 311 285 104 100 65 58 97 190 182 187 189 192 206 210 214 203 193 198 210 207 219 220 235 246 248
143 141 145 158 172 188 153 171 253 238 216 231 227 282 276 243 225 232 200 203 215 212 182 289 219 206 232 273 168 66 299 112 108 193 136 133 176 187 193 190 192 205 218 209 208 209 207 214 249 252 245 245 263 286
130 144 160 178 293 179 122 112 260 261 237 203 222 229 218 232 228 212 216 220 192 183 215 233 241 244 238 210 94 300 266 101 268 221 240 175 167 185 193 201 201 179 217 213 216 237 230 230 217 226 240 262 315 300
117 146 167 249 208 291 92 174 201 242 234 229 197 209 220 207 230 232 234 211 220 208 228 243 259 261 327 341 348 337 353 300 297 283 154 169 187 206 173 197 200 205 218 227 219 199 218 250 229 230 243 239 274 297
87 182 205 223 217 153 239 192 334 96 241 255 183 210 244 212 217 219 222 235 230 229 231 248 252 266 229 223 236 226 258 281 238 273 242 234 256 219 202 195 202 208 218 240 231 233 211 207 229 244 258 269 278 285
138 132 340 284 143 123 209 174 209 190 216 208 184 208 214 222 230 161 218 228 239 238 239 248 246 247 270 283 242 223 225 234 250 242 229 232 255 260 181 209 241 217 235 216 224 238 242 241 193 257 272 261 259 272
0 99 179 212 193 209 156 195 211 225 196 218 199 220 224 186 121 216 237 235 218 194 213 220 234 231 227 229 249 243 232 224 235 248 238 232 226 227 240 255 203 242 235 238 240 224 221 239 236 247 248 260 266 273
105 179 147 291 270 214 195 188 201 212 219 208 205 231 163 145 210 226 231 169 338 276 134 179 219 222 232 230 217 216 216 240 236 230 233 233 237 222 217 250 260 217 225 227 231 245 249 223 239 250 269 273 278 291
157 188 211 195 173 216 189 187 195 205 220 179 234 295 246 260 251 211 130 174 189 219 351 329 281 207 205 239 264 245 199 202 232 241 248 239 210 206 197 218 237 251 267 245 249 226 221 227 234 247 260 271 253 251
211 164 184 254 277 180 240 221 145 201 204 198 230 205 188 227 223 120 99 75 47 60 342 263 296 249 263 232 220 246 280 220 209 243 249 238 239 238 226 193 206 228 226 212 213 227 236 244 255 265 260 294 306 294
18 4 190 176 208 189 293 194 190 206 220 216 206 248 270 22 54 341 216 55 335 344 324 243 221 261 277 285 273 221 205 239 199 225 250 249 238 231 228 256 332 56 313 300 216 220 233 255 272 287 303 307 308 309
235 156 210 195 177 194 204 205 241 211 20 341 297 350 21 112 134 254 289 308 318 309 302 288 326 260 235 221 199 255 211 199 200 189 223 251 238 206 206 221 220 203 214 230 198 253 273 288 306 314 310 304 294 286
194 203 226 217 215 219 216 237 250 278 163 152 256 228 236 198 184 195 285 347 324 295 298 295 280 277 209 85 247 221 192 211 214 188 225 239 202 212 202 170 195 199 198 215 233 201 183 240 239 242 244 250 282 350
228 201 229 244 246 233 230 252 259 298 271 217 248 250 264 295 315 180 119 242 271 273 268 285 46 295 313 38 283 205 12 272 161 262 1 334 249 205 163 151 180 189 172 347 283 292 149 272 309 351 337 353 340 321
221 217 221 239 292 331 276 220 222 238 234 212 222 228 228 220 239 143 58 332 318 339 33 300 323 341 256 246 296 87 243 32 130 168 209 246 103 107 142 170 82 59 223 222 268 8 18 335 354 5 345 358 346 329
243 250 292 286 252 237 234 231 246 248 223 221 226 224 210 201 105 47 70 44 352 330 341 336 314 313 354 305 347 26 260 75 67 77 73 50 31 10 321 213 120 181 179 299 348 351 114 49 8 352 337 332 328 328